User: anonymous   Login
Location: Bartlow
(52.0833°N, 0.3167°E)
Time: 12:32:06
(UTC+00:00)
Language:

CZ-4 R/B - Orbit

View from above orbital plane
View from above orbital plane
View from above satellite
View from above satellite

Ground track
Ground track

The orbit data is extracted from the following two-line orbital elements,

1 28059U 03049C   24056.85419376  .00000939  00000-0  23322-3 0  9996
2 28059  98.5968  16.1658 0048906 340.3755  19.5557 14.53580253 78623
Epoch (UTC): 25 February 2024 20:30:02
Eccentricity: 0.0048906
inclination: 98.5968°
perigee height: 679 km
apogee height: 748 km
right ascension of ascending node: 16.1658°
argument of perigee: 340.3755°
revolutions per day: 14.53580253
mean anomaly at epoch: 19.5557°
orbit number at epoch: 7862

The dashed part of the orbit path shows where the satellite is in the earth's shadow,  

DLR